FLOCK 3P-27 (41963 NORAD) Tracking and Keplerian Element Data

This shows tracking and keplerian element data for the satellite.

Feedback or suggestion? Click here.




ElementValue
Catalog41963
NameFLOCK 3P-27
Epoch Orbit17712
Epoch Day114.74630554
Epoch Year2020
RAAN183.7097
Inclination97.3679
Eccentricity0.0009733
Argument of Perigee119.3036
Mean Anonmoly240.9177
Mean Motion15.27501278
Decay Rate2.866E-05
L11 41963U 17008R 20114.74630554 .00002866 00000-0 10915-3 0 9992
L22 41963 97.3679 183.7097 0009733 119.3036 240.9177 15.27501278177122



Live tracking and technical data element details for FLOCK 3P-27 (NORAD 41963). FLOCK 3P-27 can be tracked NOW for your location showing map with azimuth and elevation plus other details from your city location.







IsCatalogInMostPopularTable: catalog: 41963, numindb: 670
Update: records affected: 1



GetName: 41963 FLOCK 3P-27

Hit Count: updated at: Mon, 17 Nov 2025 08:06:19 GMT